SCP
0 0 0 0 0 0 0 0 0 0 0 0 0 0 0 0 0 0 0 0 0 0 0 0 0 0 0 0 0 0 0 0 0 0 0 0 0 0 0 0 0 0 0
0 0 0 0 0 0 0 0 0 0 0 0 0 0 0 0 0 0 0 0 0 0 0 0 0 0 0 0 0 0 0 0 0 0 0 0 0 0 0 0 0 0 0
0 0 0 0 0 0 0 0 0 0 0 0 0 0 0 0 0 0 0 0 0 0 0 0 0 0 0 0 0 0 0 0 0 0 0 0 0 0 0 0 0 0 0
0 0 0 0 0 0 0 0 0 0 0 0 0 0 0 0 0 0 0 0 0 0 0 0 0 0 0 0 0 0 0 0 0 0 0 0 0 0 0 0 0 0 0
0 0 0 0 0 0 0 0 0 0 0 0 0 0 0 0 0 0 0 0 0 0 0 0 0 0 0 0 0 0 0 0 0 0 0 0 0 0 0 0 0 0 0
0 0 0 0 0 0 0 0 0 0 0 0 0 0 0 0 0 0 0 0 0 0 0 0 0 0 0 0 0 0 0 0 0 0 0 0 0 0 0 0 0 0 0
0 0 0 0 0 0 0 0 0 0 0 0 0 0 0 0 0 0 0 0 0 0 0 0 0 0 0 0 0 0 0 0 0 0 0 0 0 0 0 0 0 0 0
0 0 0 0 0 0 0 0 0 0 0 0 0 0 0 0 0 0 0 0 0 0 0 0 0 0 0 0 0 0 0 0 0 0 0 0 0 0 0 0 0 0 0
0 0 0 0 0 0 0 0 0 0 0 0 0 0 0 0 0 0 0 0 0 0 0 0 0 0 0 0 0 0 0 0 0 0 0 0 0 0 0 0 0 0 0
0 0 0 0 0 0 0 0 0 0 0 0 0 0 0 0 0 0 0 0 0 0 0 0 0 0 0 0 0 0 0 0 0 0 0 0 0 0 0 0 0 0 0
0 0 0 0 0 0 0 0 0 0 0 0 0 0 0 0 0 0 0 0 0 0 0 0 0 0 0 0 0 0 0 0 0 0 0 0 0 0 0 0 0 0 0
0 0 0 0 0 0 0 0 0 0 0 0 0 0 0 0 0 0 0 0 0 0 0 0 0 0 0 0 0 0 0 0 0 0 0 0 0 0 0 0 0 0 0
0 0 0 0 0 0 0 0 0 0 0 0 0 0 0 0 0 0 0 0 0 0 0 0 0 0 0 0 0 0 0 0 0 0 0 0 0 0 0 0 0 0 0
0 0 0 0 0 0 0 0 0 0 0 0 0 0 0 0 0 0 0 0 0 0 0 0 0 0 0 0 0 0 0 0 0 0 0 0 0 0 0 0 0 0 0
0 0 0 0 0 0 0 0 0 0 0 0 0 0 0 0 0 0 0 0 0 0 0 0 0 0 0 0 0 0 0 0 0 0 0 0 0 0 0 0 0 0 0
0 0 0 0 0 0 0 0 0 0 0 0 0 0 0 0 0 0 0 0 0 0 0 0 0 0 0 0 0 0 0 0 0 0 0 0 0 0 0 0 0 0 0
0 0 0 0 0 0 0 0 0 0 0 0 0 0 0 0 0 0 0 0 0 0 0 0 0 0 0 0 0 0 0 0 0 0 0 0 0 0 0 0 0 0 0
0 0 0 0 0 0 0 0 0 0 0 0 0 0 0 0 0 0 0 0 0 0 0 0 0 0 0 0 0 0 0 0 0 0 0 0 0 0 0 0 0 0 0
0 0 0 0 0 0 0 0 0 0 0 0 0 0 0 0 0 0 0 0 0 0 0 0 0 0 0 0 0 0 0 0 0 0 0 0 0 0 0 0 0 0 0
0 0 0 0 0 0 0 0 0 0 0 0 0 0 0 0 0 0 0 0 0 0 0 0 0 0 0 0 0 0 0 0 0 0 0 0 0 0 0 0 0 0 0
0 0 0 0 0 0 0 0 0 0 0 0 0 0 0 0 0 0 0 0 0 0 0 0 0 0 0 0 0 0 0 0 0 0 0 0 0 0 0 0 0 0 0
0 0 0 0 0 0 0 0 0 0 0 0 0 0 0 0 0 0 0 0 0 0 0 0 0 0 0 0 0 0 0 0 0 0 0 0 0 0 0 0 0 0 0
0 0 0 0 0 0 0 0 0 0 0 0 0 0 0 0 0 0 0 0 0 0 0 0 0 0 0 0 0 0 0 0 0 0 0 0 0 0 0 0 0 0 0
0 0 0 0 0 0 0 0 0 0 0 0 0 0 0 0 0 0 0 0 0 0 0 0 0 0 0 0 0 0 0 0 0 0 0 0 0 0 0 0 0 0 0
0 0 0 0 0 0 0 0 0 0 0 0 0 0 0 0 0 0 0 0 0 0 0 0 0 0 0 0 0 0 0 0 0 0 0 0 0 0 0 0 0 0 0
0 0 0 0 0 0 0 0 0 0 0 0 0 0 0 0 0 0 0 0 0 0 0 0 0 0 0 0 0 0 0 0 0 0 0 0 0 0 0 0 0 0 0
Wind_Speed
3 2 2 2 2 2 2 2 2 2 2 1 2 3 4 4 4 4 3 10 11 11 11 11 11 11 10 10 9 9 9 9 9 9 8 8 9 9 8 8 7 7 7
3 3 2 2 2 2 2 2 2 2 2 1 1 3 4 4 4 4 3 6 11 11 11 11 11 11 11 11 10 10 9 9 9 9 9 8 8 8 8 8 7 7 7
4 3 2 2 2 2 2 1 1 1 1 1 1 2 3 4 5 5 5 3 5 9 11 11 11 11 11 11 11 10 10 10 10 9 9 8 8 8 8 8 8 7 6
3 2 2 2 1 1 1 2 1 1 1 1 1 1 2 3 4 5 4 4 4 4 8 11 11 11 11 11 11 11 11 11 10 10 10 9 9 9 9 8 8 7 7
3 2 2 1 1 1 1 2 2 2 2 1 1 1 1 2 3 5 5 5 5 4 4 8 11 11 11 11 11 12 11 11 11 11 11 11 10 9 9 9 9 8 8
4 3 2 2 1 1 1 1 2 1 2 2 1 0 1 2 2 3 5 4 4 6 5 5 5 7 11 10 11 12 12 11 11 11 12 11 11 10 10 10 9 10 10
4 3 2 2 2 1 2 2 2 1 1 1 1 1 2 1 2 3 3 3 5 5 5 5 4 4 4 10 11 11 12 12 12 12 12 12 12 11 10 11 10 10 10
4 4 3 2 2 1 1 2 2 1 1 1 2 1 2 3 2 1 2 3 4 4 5 7 5 5 4 3 7 12 12 13 13 12 12 12 11 11 11 11 11 11 11
4 3 4 3 3 2 2 3 2 3 2 1 2 3 2 2 2 2 2 2 3 3 4 4 6 6 6 4 4 9 12 11 12 12 12 12 11 11 11 11 12 12 11
5 5 4 4 3 3 3 3 3 3 3 2 1 1 2 3 2 2 3 2 3 3 4 4 5 6 6 5 6 9 11 11 11 12 12 12 11 11 11 11 12 12 12
4 5 5 4 4 3 4 3 3 3 3 3 2 1 1 1 2 2 2 3 2 2 3 4 4 4 5 5 5 8 10 11 11 11 11 11 11 11 11 11 12 12 12
3 4 4 4 4 4 4 4 3 3 3 3 2 2 2 2 2 3 3 3 2 3 2 2 3 4 4 5 7 10 11 11 11 11 10 10 10 10 11 11 11 11 12
3 4 4 4 3 4 4 4 3 3 3 3 3 3 3 3 3 3 3 2 2 2 2 2 3 3 4 3 4 8 9 10 10 10 11 10 10 10 9 10 10 10 10
3 4 3 4 4 4 4 3 2 3 2 3 4 3 3 3 3 3 3 3 1 1 2 3 1 2 3 3 3 6 5 9 10 9 10 10 9 9 9 8 8 8 8
3 4 4 4 3 3 3 3 2 2 2 3 3 3 2 2 2 2 2 3 3 2 3 3 2 2 2 2 3 3 3 5 8 9 9 9 9 9 8 7 7 7 7
3 3 3 3 3 2 3 2 2 2 2 2 2 2 2 2 1 2 2 2 3 4 3 3 3 2 1 2 3 3 4 5 6 6 8 8 8 8 8 7 7 7 7
3 3 3 3 3 2 2 2 2 2 2 2 2 2 3 2 2 2 1 2 2 3 3 3 2 1 1 1 1 2 2 2 2 4 5 6 7 7 7 7 7 6 6
3 3 3 3 3 2 2 2 2 2 2 2 2 1 2 1 1 1 1 2 2 2 3 3 2 1 1 1 1 2 2 2 2 3 5 5 6 6 6 6 6 6 6
3 3 3 3 2 2 2 2 2 1 1 2 1 1 2 1 1 1 1 1 1 1 2 2 2 1 1 0 0 0 0 0 1 2 3 4 5 6 6 6 5 5 5
3 3 2 2 2 2 1 1 1 1 1 1 1 1 1 2 2 2 1 1 1 1 1 1 1 1 1 1 1 0 1 1 1 1 1 2 3 4 5 5 5 5 5
3 3 3 2 1 1 1 1 1 1 1 0 1 1 1 0 0 1 1 2 2 1 1 1 0 0 1 1 0 0 1 1 1 1 1 1 1 1 1 3 3 4 5
3 3 3 2 1 1 1 2 2 1 1 1 1 1 2 2 3 3 3 3 3 3 2 1 1 1 1 1 0 0 0 0 1 1 0 1 1 0 1 1 2 3 4
3 3 2 2 2 2 3 3 4 2 2 1 1 1 1 2 2 2 3 5 4 3 2 3 2 1 1 1 1 1 1 1 1 1 0 1 1 1 2 1 1 0 1
3 3 2 3 3 2 4 4 4 3 3 2 2 2 2 2 2 2 2 3 3 3 2 1 1 1 0 1 2 2 2 1 1 1 1 0 1 1 2 2 2 2 2
3 3 3 3 3 2 3 4 4 3 3 3 3 3 3 2 4 4 3 3 3 3 5 6 5 4 4 3 2 2 2 2 1 2 1 1 1 1 1 2 2 4 3
3 3 3 3 3 3 4 4 4 3 3 2 3 3 5 5 5 4 3 4 4 2 3 5 5 6 4 5 5 2 2 2 1 1 2 1 1 1 1 2 2 2 2
Wind_Direction
169 176 186 194 206 201 197 201 207 213 218 190 164 156 160 159 157 164 173 176 177 178 177 177 177 177 175 176 176 175 174 174 173 173 175 175 172 170 170 168 168 169 168
164 170 174 184 203 203 200 195 193 198 196 164 161 159 159 157 164 167 172 182 185 185 186 185 184 184 184 185 186 184 183 183 183 183 184 183 181 179 181 180 180 177 178
164 163 158 179 203 193 191 186 178 154 160 158 175 170 162 162 168 173 178 182 191 195 193 193 192 192 194 195 194 193 192 192 191 191 192 192 191 189 191 192 190 187 184
160 152 158 188 199 175 162 164 165 148 153 158 175 190 172 168 177 177 183 191 190 198 202 200 199 200 201 204 202 202 201 200 200 199 199 200 198 197 199 198 198 194 194
175 159 177 199 184 158 162 181 171 163 167 180 193 191 194 184 180 181 189 198 196 197 198 206 205 206 208 209 208 208 207 207 206 205 205 206 206 206 206 204 204 202 204
178 169 183 197 178 147 148 146 155 153 166 176 201 198 222 203 189 187 193 193 199 202 199 200 202 211 212 212 213 211 211 211 211 212 212 211 211 210 211 211 209 210 211
181 176 183 181 171 167 183 173 153 150 181 137 87 6 332 278 216 202 196 189 202 205 198 199 199 202 212 216 216 217 217 215 215 215 215 215 217 215 214 216 214 214 216
183 184 182 182 184 178 183 185 162 146 183 137 130 102 352 339 319 236 203 201 204 201 205 207 202 204 208 204 217 220 221 220 218 217 216 217 218 217 219 221 219 218 218
185 189 185 178 185 184 198 205 183 169 185 210 155 149 157 227 293 307 251 222 213 209 215 207 205 207 209 207 215 225 224 222 222 223 221 220 219 218 219 222 222 221 221
189 186 185 187 189 189 201 208 195 181 170 193 210 193 183 170 169 293 311 274 234 224 219 214 212 209 207 204 211 216 220 219 222 226 226 225 222 219 220 224 226 226 224
204 194 190 186 190 193 200 204 195 184 175 182 191 193 203 193 167 170 265 296 299 256 226 216 212 210 211 208 211 219 219 219 221 223 226 226 222 220 223 226 230 230 229
220 211 199 192 199 199 202 206 201 192 192 193 194 189 180 182 195 185 218 246 264 274 253 227 215 213 210 208 219 218 216 217 219 219 220 221 221 220 222 225 230 234 234
216 221 207 198 203 205 204 203 200 206 198 199 205 210 205 208 192 182 187 218 244 281 285 254 229 224 217 204 221 219 217 213 213 215 217 219 219 220 221 223 230 234 236
210 212 205 201 200 200 205 198 201 207 202 209 221 217 218 224 203 191 182 174 207 298 294 272 268 227 219 197 217 212 221 217 215 214 217 218 218 220 220 223 228 233 234
208 204 201 198 199 199 200 187 197 210 205 212 223 224 222 232 215 204 190 178 176 216 263 264 264 243 212 191 201 190 203 214 215 216 218 218 216 217 218 220 227 234 238
197 186 195 193 189 193 196 187 197 213 205 227 221 220 235 245 244 219 201 202 188 186 227 247 239 238 209 209 202 200 211 205 209 214 218 216 216 216 216 218 223 229 233
179 176 178 170 169 176 181 180 201 201 206 231 237 225 240 231 227 234 210 195 194 181 215 264 266 262 201 209 196 200 206 203 213 215 212 215 215 217 219 220 224 227 229
172 164 159 160 168 171 177 184 211 210 202 225 246 241 255 238 219 229 202 201 199 195 192 239 278 288 243 220 190 187 207 202 194 207 204 212 215 217 220 222 225 226 229
157 147 146 157 167 174 180 197 202 206 212 233 246 247 255 214 242 241 195 200 206 201 178 189 255 265 262 265 94 199 218 255 203 216 209 219 223 222 224 223 223 230 235
153 150 149 156 168 168 171 185 170 184 224 264 266 242 246 221 228 228 215 210 179 151 147 167 231 282 292 313 83 53 341 310 256 275 257 231 239 231 231 227 227 233 238
143 135 134 136 153 154 165 152 160 155 168 0 19 0 341 42 138 200 180 170 156 148 146 147 214 19 4 31 231 233 261 289 302 348 311 297 294 272 249 239 236 240 240
131 128 131 131 125 122 85 97 122 132 110 101 71 29 19 32 49 67 100 124 135 152 170 159 183 185 264 244 262 191 219 284 307 336 36 303 35 335 282 240 233 234 240
125 122 127 123 117 98 86 89 103 113 93 86 95 76 51 53 53 69 72 71 68 76 135 167 165 212 221 231 198 217 213 198 225 281 69 328 349 330 315 345 19 283 220
119 120 115 118 116 90 89 93 91 91 82 65 61 66 75 44 34 68 81 71 61 42 52 103 146 218 202 203 193 192 191 160 117 357 62 41 326 329 339 355 15 39 49
108 105 106 109 104 81 78 88 93 91 79 61 50 54 72 63 38 66 89 88 67 42 51 62 60 50 45 53 77 87 75 91 36 339 1 78 322 321 331 340 0 21 25
110 105 89 85 95 86 71 79 97 103 89 68 48 44 53 59 50 63 90 96 85 65 62 51 44 35 34 38 48 85 122 112 94 342 331 44 337 13 354 332 336 347 4